Regional Weather Roundup
Issued by NWS

Home | Current Version | Previous Version | Graphics & Text | Print | Product List | Glossary On
Versions: 1 2 3 4 5 6 7 8 9 10 11 12 13 14 15 16 17 18 19 20 21 22 23 24 25 26 27 28 29 30 31 32 33 34 35 36 37 38 39 40 41 42 43 44 45 46 47 48 49 50
000
ASUS43 KDTX 230810
RWRMI
MICHIGAN HOURLY REGIONAL WEATHER ROUNDUP
NATIONAL WEATHER SERVICE DETROIT/PONTIAC MI
400 AM EDT TUE SEP 23 2014

NOTE: "FAIR" INDICATES FEW OR NO CLOUDS BELOW 12,000 FEET WITH NO
SIGNIFICANT WEATHER AND/OR OBSTRUCTION TO VISIBILITY.

MIZ047>049-052>055-059>063-066>070-074>076-081>083-230900-
SOUTHEAST LOWER MICHIGAN

CITY           SKY/WX    TMP DP  RH WIND       PRES   REMARKS
ADRIAN         CLEAR     44  43  96 CALM      30.29S
ALMA           CLEAR     46  45  93 SW5       30.27S
ANN ARBOR      FOG       38  35  89 CALM      30.28S VSB 3/4
BAD AXE        CLEAR     45  45 100 CALM      30.26R
CARO             N/A     43  43  99 CALM      30.26R FOG
DETROIT CITY   CLEAR     50  44  80 CALM      30.29S
DETROIT        CLEAR     47  44  90 CALM      30.29S
FLINT          CLEAR     46  43  89 S5        30.28R FOG
GROSSE ILE     CLEAR     48  45  87 CALM      30.27S
HILLSDALE      CLEAR     40  40 100 CALM      30.29R FOG
HOWELL         CLEAR     44  43  97 CALM      30.28R

CITY           SKY/WX    TMP DP  RH WIND       PRES   REMARKS
JACKSON        CLEAR     43  41  93 CALM      30.29R
LAMBERTVILLE   CLEAR     43  41  93 CALM      30.29S FOG
LANSING        CLEAR     47  44  90 CALM      30.28S
LAPEER         FAIR      41  41  97 CALM      30.27S
MASON          CLEAR     43  42  97 CALM      30.28S
MONROE         CLEAR     45  43  93 CALM      30.27S
MT. CLEMENS    CLEAR     46  46  99 W5        30.25F
PONTIAC        CLEAR     45  41  86 CALM      30.27S
PORT HOPE        N/A     50  47  89 SW8       30.22R
PORT HURON     FOG       41  41 100 CALM      30.27S VSB 1
TRI CITIES     CLEAR     49  46  90 SW8       30.27R
TROY           CLEAR     49  45  88 CALM      30.29S
SAGINAW HB     CLEAR     46  46 100 CALM      30.26S
$$
MIZ043>046-050>051-056>058-064>065-071>073-077>080-230900-
SOUTHWEST LOWER MICHIGAN

CITY           SKY/WX    TMP DP  RH WIND       PRES   REMARKS
BATTLE CREEK   CLEAR     47  43  86 CALM      30.29R
BENTON HARBOR  CLEAR     43  42  97 CALM      30.28S
BIG RAPIDS     CLEAR     46  46 100 CALM      30.24S FOG
COLDWATER      CLEAR     44  43  97 MISG      30.29S
FREMONT        FAIR      46  45  97 CALM      30.25S FOG
HOLLAND        CLEAR     48  43  82 S5        30.27F
GRAND RAPIDS   CLEAR     47  44  90 CALM      30.27S
IONIA          FAIR      45  43  94 SW3       30.27S
KALAMAZOO      CLEAR     44  42  93 CALM      30.28S
LUDINGTON      CLEAR     56  55  94 S5        30.23S
MARSHALL       CLEAR     40  39  96 S6        30.29R
MOUNT PLEASANT CLEAR     46  45  96 CALM      30.25S
MUSKEGON       CLEAR     53  50  89 S7        30.26S
SOUTH HAVEN    CLEAR     47  45  91 S3        30.28S
$$
MIZ016>042-230900-
NORTHERN LOWER MICHIGAN

CITY           SKY/WX    TMP DP  RH WIND       PRES   REMARKS
ALPENA         CLEAR     51  45  79 SW8       30.18S
BEAVER ISLAND  CLEAR     57  55  92 SW6       30.16S
BELLAIRE       CLEAR     45  44  95 CALM      30.21S
CADILLAC       CLEAR     41  39  93 CALM      30.23S
CHARLEVOIX     CLEAR     55  53  93 SW10      30.20S
FRANKFORT      CLEAR     56  53  87 CALM      30.21S
GAYLORD        CLEAR     48  45  89 SW5       30.20S
GRAYLING         N/A     42  42 100 CALM      30.23S FOG
HARBOR SPRINGS CLEAR     54  50  85 SW6       30.18S
HOUGHTON LAKE  CLEAR     50  46  86 SW7       30.24R
MANISTEE       CLEAR     45  41  87 E6        30.23R
OSCODA         CLEAR     48  46  92 SW6       30.21R
PELLSTON       CLEAR     56  51  84 W7        30.17S
ROGERS CITY    CLEAR     53  49  87 SW9       30.16S
TRAVERSE CITY  CLEAR     51  48  89 S3        30.20S
$$
MIZ007>008-015-230900-
EASTERN UPPER MICHIGAN

CITY           SKY/WX    TMP DP  RH WIND       PRES   REMARKS
KINROSS        CLEAR     54  54 100 SW6       30.12S
MACKINAC ISLAN CLEAR     58  56  92 SW10G18   30.14S
NEWBERRY       CLEAR     52  48  87 SW9       30.12S
S. S. MARIE    CLEAR     51  49  92 SW7       30.11R
MUNISING         N/A     52  47  83 SE6       30.12S
$$
MIZ004>006-011>014-085-230900-
CENTRAL UPPER MICHIGAN

CITY           SKY/WX    TMP DP  RH WIND       PRES   REMARKS
MANISTIQUE     CLEAR     54  50  87 W6        30.13F
ESCANABA       CLEAR     48  46  93 W7        30.16S
MENOMINEE      CLEAR     52  48  87 W3        30.18S
SAWYER-GWINN   CLEAR     50  47  88 SW5       30.15S
$$
MIZ001>003-009>011-084-230900-
WESTERN UPPER MICHIGAN

CITY           SKY/WX    TMP DP  RH WIND       PRES   REMARKS
IRON MOUNTAIN  CLEAR     53  48  83 NW7       30.17S
HOUGHTON       CLEAR     58  49  72 W14       30.13R
COPPER HARBOR    N/A     62  49  62 NW8       30.09R
IRONWOOD       CLEAR     52  48  87 CALM      30.16S
$$

ABBREVIATIONS USED IN REMARKS
   TC - TEMPERATURE IN CELSIUS
  WCI - WIND CHILL INDEX
   HX - HEAT INDEX
  VSB - VISIBILITY



USA.gov is the U.S. government's official web portal to all federal, state and local government web resources and services.